Total_Precipitation_Accumulation
1.40 1.63 2.39 2.93 2.94 2.33 1.76 1.24 0.99 1.00 0.92 0.71 0.49 0.43 0.66 1.00 1.32 1.71 1.78 1.45 0.93 0.76 0.70 1.00 1.26 1.11 0.96 0.93 0.95 1.02 1.02 1.00 1.00 1.01 1.05 0.81 0.67 0.63 0.58 0.58 0.56 0.51 0.44 0.45 0.52 0.55 0.52 0.44 0.45
1.19 2.04 2.97 3.40 2.71 1.83 1.55 1.20 1.15 0.99 0.72 0.54 0.41 0.37 0.51 0.58 0.49 0.96 1.77 1.77 1.01 0.84 0.80 0.97 1.26 1.12 0.99 0.97 1.05 1.08 1.07 1.07 1.12 1.09 0.94 0.73 0.69 0.67 0.64 0.66 0.67 0.59 0.47 0.43 0.44 0.50 0.49 0.47 0.50
1.36 2.43 3.09 3.12 1.94 1.54 1.50 1.32 1.12 0.78 0.52 0.46 0.44 0.34 0.42 0.65 0.73 1.06 1.60 1.28 0.89 0.84 0.92 1.23 1.34 1.13 1.04 0.98 1.04 1.16 1.20 1.16 1.16 1.05 0.80 0.69 0.68 0.70 0.69 0.73 0.70 0.64 0.59 0.51 0.45 0.46 0.44 0.44 0.46
1.74 2.63 2.76 2.25 1.68 1.29 1.21 1.21 0.83 0.64 0.51 0.38 0.37 0.39 0.44 0.67 0.84 0.95 1.05 0.97 0.81 0.79 0.82 1.03 1.26 1.12 1.03 1.03 1.10 1.09 1.01 1.01 1.07 0.97 0.79 0.67 0.71 0.72 0.71 0.67 0.63 0.64 0.62 0.57 0.54 0.50 0.47 0.47 0.43
2.31 2.83 2.53 1.94 1.55 1.32 1.07 0.88 0.67 0.70 0.60 0.46 0.41 0.51 0.65 0.95 1.02 1.07 1.04 0.98 0.87 0.84 0.76 0.84 1.06 1.01 0.96 1.02 1.09 1.07 0.95 0.98 0.99 0.94 0.87 0.71 0.68 0.70 0.72 0.63 0.56 0.55 0.55 0.54 0.54 0.50 0.48 0.45 0.45
2.63 2.68 2.51 2.07 1.60 1.36 1.12 0.78 0.61 0.65 0.59 0.53 0.52 0.62 0.85 1.21 1.27 1.34 1.11 1.07 1.01 0.87 0.80 0.77 0.90 0.89 0.87 0.92 0.99 1.01 0.96 1.04 1.00 0.87 0.82 0.75 0.65 0.64 0.64 0.60 0.60 0.56 0.57 0.57 0.55 0.49 0.45 0.45 0.45
2.68 2.56 2.27 1.79 1.57 1.54 1.24 0.72 0.55 0.60 0.59 0.55 0.53 0.67 0.91 1.32 1.36 1.24 1.11 1.04 1.05 0.95 0.87 0.82 0.80 0.81 0.89 1.02 1.00 0.96 1.01 1.10 1.05 0.85 0.77 0.77 0.64 0.56 0.55 0.57 0.59 0.57 0.61 0.65 0.59 0.48 0.42 0.46 0.49
2.07 2.22 2.19 1.98 1.74 1.76 1.15 0.65 0.43 0.41 0.49 0.40 0.42 0.63 0.89 1.16 1.12 1.15 1.10 1.05 1.04 0.92 0.82 0.75 0.73 0.75 0.79 0.91 0.97 0.92 0.90 0.98 0.99 0.87 0.84 0.84 0.68 0.57 0.56 0.55 0.58 0.62 0.65 0.72 0.67 0.57 0.51 0.51 0.54
1.88 2.16 2.39 2.30 1.71 1.52 0.99 0.74 0.44 0.29 0.34 0.35 0.38 0.42 0.62 0.70 0.73 0.89 0.98 0.92 0.92 0.82 0.75 0.70 0.68 0.70 0.75 0.84 0.86 0.94 0.96 0.98 0.90 0.84 0.88 0.79 0.58 0.54 0.57 0.51 0.63 0.74 0.88 0.89 0.81 0.72 0.64 0.59 0.51
2.00 2.17 2.13 1.68 1.18 1.01 0.96 0.79 0.46 0.43 0.50 0.49 0.46 0.47 0.71 0.75 0.78 0.94 0.92 0.88 0.83 0.82 0.77 0.69 0.71 0.69 0.68 0.72 0.97 1.13 1.00 0.90 0.79 0.81 0.79 0.77 0.74 0.71 0.52 0.53 0.69 0.76 0.85 0.89 0.83 0.79 0.65 0.49 0.39
1.46 1.65 1.54 1.25 0.83 0.76 0.78 0.62 0.43 0.53 0.65 0.56 0.56 0.60 0.72 0.83 0.87 0.92 0.92 0.87 0.80 0.75 0.73 0.66 0.64 0.58 0.57 0.71 0.90 1.08 1.13 1.09 1.05 0.90 0.89 0.85 0.77 0.66 0.51 0.49 0.54 0.59 0.68 0.67 0.74 0.73 0.52 0.42 0.43
1.22 1.12 1.13 1.08 0.72 0.71 0.71 0.57 0.55 0.57 0.55 0.42 0.43 0.49 0.61 0.75 0.79 0.83 0.84 0.76 0.69 0.65 0.67 0.62 0.58 0.53 0.51 0.51 0.62 0.78 0.84 0.83 0.84 0.85 0.79 0.80 0.82 0.75 0.64 0.58 0.62 0.65 0.64 0.69 0.76 0.74 0.61 0.52 0.44
1.26 1.12 0.98 0.98 0.77 0.73 0.69 0.56 0.52 0.52 0.43 0.39 0.44 0.53 0.64 0.73 0.75 0.71 0.65 0.63 0.62 0.62 0.61 0.61 0.60 0.57 0.63 0.61 0.57 0.57 0.62 0.68 0.73 0.80 0.72 0.67 0.70 0.73 0.75 0.69 0.74 0.70 0.69 0.71 0.73 0.62 0.60 0.60 0.51
1.06 1.02 1.04 1.04 0.91 0.75 0.75 0.61 0.52 0.59 0.48 0.45 0.51 0.57 0.62 0.70 0.71 0.63 0.58 0.53 0.49 0.58 0.66 0.68 0.61 0.63 0.61 0.56 0.59 0.63 0.62 0.66 0.69 0.73 0.66 0.60 0.60 0.63 0.74 0.73 0.78 0.69 0.71 0.79 0.72 0.66 0.69 0.69 0.60
0.84 1.06 1.15 1.04 0.95 0.85 0.79 0.83 0.60 0.60 0.54 0.56 0.57 0.57 0.62 0.68 0.68 0.65 0.59 0.51 0.45 0.50 0.62 0.73 0.69 0.70 0.65 0.60 0.63 0.67 0.66 0.63 0.66 0.69 0.62 0.58 0.61 0.62 0.75 0.79 0.77 0.75 0.78 0.82 0.85 0.84 0.79 0.71 0.63
0.97 1.18 1.45 1.10 0.96 0.85 0.91 0.98 0.66 0.67 0.62 0.60 0.54 0.56 0.55 0.58 0.62 0.66 0.60 0.51 0.47 0.46 0.55 0.67 0.68 0.72 0.74 0.73 0.73 0.70 0.66 0.67 0.72 0.75 0.70 0.66 0.64 0.67 0.87 0.92 0.81 0.86 0.97 1.01 1.03 0.99 0.91 0.82 0.78
1.27 1.31 1.26 1.11 0.89 0.78 0.84 0.83 0.69 0.66 0.64 0.62 0.52 0.46 0.43 0.43 0.50 0.58 0.54 0.47 0.46 0.46 0.50 0.56 0.62 0.82 0.83 0.78 0.84 0.84 0.80 0.86 0.89 0.92 0.89 0.84 0.81 0.89 1.06 1.13 1.04 1.02 1.17 1.14 1.04 1.05 1.07 0.98 0.98
1.04 0.91 0.87 0.94 0.77 0.72 0.76 0.65 0.64 0.62 0.59 0.56 0.51 0.42 0.37 0.37 0.40 0.42 0.40 0.37 0.35 0.39 0.43 0.49 0.59 0.72 0.82 0.96 1.04 1.11 1.12 1.11 1.23 1.30 1.29 1.12 1.07 1.13 1.28 1.38 1.34 1.30 1.41 1.41 1.29 1.38 1.38 1.28 1.32
0.70 0.70 0.77 0.72 0.57 0.63 0.65 0.57 0.61 0.59 0.57 0.47 0.41 0.37 0.32 0.29 0.31 0.30 0.29 0.29 0.28 0.30 0.34 0.41 0.59 0.75 0.90 1.00 1.13 1.38 1.55 1.64 1.63 1.63 1.70 1.62 1.44 1.52 1.64 1.61 1.82 1.89 1.87 1.87 1.81 1.93 1.96 1.69 1.51
0.65 0.69 0.72 0.62 0.48 0.53 0.59 0.55 0.55 0.54 0.49 0.38 0.34 0.33 0.28 0.24 0.22 0.22 0.21 0.22 0.22 0.22 0.26 0.34 0.49 0.73 0.97 1.17 1.34 1.53 1.84 2.00 2.00 2.06 2.01 1.96 1.85 1.87 1.79 1.87 2.08 2.13 2.24 2.33 2.17 2.30 2.38 2.07 1.76
0.59 0.59 0.62 0.57 0.55 0.53 0.54 0.59 0.57 0.55 0.45 0.34 0.26 0.26 0.22 0.18 0.20 0.21 0.21 0.19 0.17 0.18 0.20 0.27 0.40 0.63 0.92 1.22 1.46 1.65 1.88 2.14 2.24 2.15 2.10 2.13 2.21 2.26 2.15 2.11 2.23 2.25 2.32 2.52 2.56 2.51 2.61 2.53 2.20
0.66 0.43 0.42 0.44 0.52 0.63 0.55 0.75 0.64 0.56 0.49 0.38 0.29 0.27 0.24 0.20 0.20 0.19 0.19 0.23 0.20 0.20 0.21 0.25 0.39 0.55 0.76 1.01 1.33 1.58 1.84 2.15 2.22 2.20 2.17 2.21 2.33 2.42 2.38 2.33 2.39 2.40 2.35 2.48 2.57 2.55 2.75 2.93 2.66
0.51 0.34 0.36 0.43 0.42 0.46 0.43 0.64 0.66 0.52 0.52 0.46 0.38 0.33 0.27 0.23 0.22 0.20 0.19 0.22 0.26 0.26 0.26 0.33 0.47 0.61 0.78 0.99 1.31 1.63 1.82 1.99 2.19 2.20 2.12 2.05 2.12 2.14 2.12 2.24 2.39 2.41 2.38 2.39 2.58 2.70 2.87 2.86 2.78
0.36 0.37 0.38 0.39 0.41 0.47 0.34 0.48 0.62 0.56 0.49 0.46 0.41 0.35 0.26 0.19 0.20 0.24 0.27 0.29 0.31 0.36 0.39 0.47 0.59 0.78 0.91 1.00 1.13 1.29 1.50 1.78 1.92 2.02 2.06 2.07 2.07 1.95 1.88 1.98 2.09 2.18 2.23 2.22 2.28 2.43 2.58 2.75 2.89
0.32 0.46 0.60 0.59 0.59 0.52 0.28 0.41 0.52 0.45 0.39 0.39 0.38 0.34 0.29 0.27 0.31 0.38 0.48 0.45 0.43 0.48 0.59 0.65 0.72 0.80 0.84 0.82 0.88 1.00 1.17 1.38 1.52 1.61 1.81 1.88 1.92 1.87 1.82 1.80 1.87 1.95 2.00 2.10 2.27 2.26 2.29 2.47 2.66
0.30 0.37 0.57 0.65 0.58 0.47 0.40 0.53 0.55 0.44 0.38 0.37 0.37 0.31 0.29 0.34 0.42 0.57 0.69 0.73 0.70 0.69 0.71 0.69 0.70 0.66 0.66 0.69 0.75 0.81 0.88 1.02 1.13 1.21 1.37 1.50 1.50 1.48 1.47 1.54 1.64 1.79 1.89 1.98 2.13 2.17 2.13 2.21 2.27
0.26 0.22 0.24 0.39 0.38 0.44 0.48 0.60 0.59 0.42 0.36 0.38 0.38 0.32 0.33 0.46 0.58 0.75 0.88 0.95 0.91 0.83 0.77 0.74 0.75 0.71 0.63 0.63 0.70 0.76 0.81 0.82 0.85 0.90 0.89 0.97 1.06 1.09 1.15 1.22 1.36 1.55 1.69 1.76 1.86 2.00 2.00 2.06 2.05
0.18 0.18 0.24 0.43 0.57 0.60 0.54 0.61 0.69 0.57 0.46 0.46 0.50 0.52 0.60 0.75 0.81 0.92 1.00 1.00 0.98 1.03 0.98 0.81 0.76 0.78 0.70 0.76 0.76 0.73 0.72 0.70 0.68 0.72 0.77 0.78 0.87 0.98 1.08 1.10 1.18 1.31 1.40 1.51 1.69 1.83 1.90 1.93 1.90
0.17 0.21 0.32 0.48 0.56 0.74 0.86 0.94 0.75 0.62 0.61 0.60 0.65 0.82 0.86 0.95 1.01 1.03 1.10 1.03 0.91 0.91 0.90 0.88 0.82 0.78 0.79 0.82 0.82 0.71 0.69 0.68 0.68 0.66 0.68 0.76 0.85 0.95 1.01 1.07 1.12 1.15 1.25 1.31 1.42 1.58 1.71 1.74 1.76
0.29 0.40 0.53 0.77 0.76 0.73 1.01 1.17 0.83 0.69 0.71 0.73 0.72 0.70 0.70 0.86 0.96 0.99 1.05 0.98 0.83 0.78 0.69 0.72 0.81 0.82 0.88 0.89 0.81 0.72 0.72 0.75 0.80 0.78 0.70 0.71 0.77 0.79 0.90 1.04 1.04 1.05 1.11 1.19 1.31 1.41 1.46 1.56 1.53